Probability
0 0 0 0 0 0 0 0 0 0 0 0 0 0 0 0 1 1 1 0 0 0 1 1 1 0 0 0 0 0 0 0 0 0 0 0 0 0 0 0 0 0 0 0
0 0 0 0 0 0 0 0 0 0 0 0 0 0 0 0 0 0 0 0 0 0 0 0 0 0 0 0 0 0 0 0 0 0 0 0 0 0 0 0 0 0 0 0
0 0 0 0 0 0 0 0 0 0 0 0 0 0 0 0 0 0 0 0 0 0 0 0 0 0 0 0 0 0 0 0 0 0 0 0 0 0 0 0 0 0 0 0
0 0 0 0 0 0 0 0 0 0 0 0 0 0 0 0 0 0 0 0 0 0 0 0 0 0 0 0 0 0 0 0 0 0 0 0 0 0 0 0 0 0 0 0
0 0 0 0 0 0 0 0 0 0 0 0 0 0 0 0 0 0 0 0 0 0 0 0 0 0 0 0 0 0 0 0 0 0 0 0 0 0 0 0 0 0 0 0
0 0 0 0 0 0 0 0 0 0 0 0 0 0 0 0 0 0 0 0 0 0 0 0 0 0 0 0 0 0 0 0 0 0 0 0 0 0 0 0 0 0 0 0
0 0 0 0 0 0 0 0 0 0 0 0 0 0 0 0 0 0 0 0 0 0 0 0 0 0 0 0 0 0 0 0 0 0 0 0 0 0 0 0 0 0 0 0
0 0 0 0 0 0 0 0 0 0 0 0 0 0 0 0 0 0 0 0 0 0 0 0 0 0 0 0 0 0 0 0 0 0 0 0 0 0 0 0 0 0 0 0
0 0 0 0 0 0 0 0 0 0 0 0 0 0 0 0 0 0 0 0 0 0 0 0 0 0 0 0 0 0 0 0 0 0 0 0 0 0 0 0 0 0 0 0
0 0 0 0 0 0 0 0 0 0 0 0 0 0 0 0 0 0 0 0 0 0 0 0 0 0 0 0 0 0 0 0 0 0 0 0 0 0 0 0 0 0 0 0
0 0 0 0 0 0 0 0 0 0 0 0 0 0 0 0 0 0 0 0 0 0 0 0 0 0 0 0 0 0 0 0 0 0 0 0 0 0 0 0 0 0 0 0
0 0 0 0 0 0 0 0 0 0 0 0 0 0 0 0 0 0 0 0 0 0 0 0 0 0 0 0 0 0 0 0 0 0 0 0 0 0 0 0 0 0 0 0
0 0 0 0 0 0 0 0 0 0 0 0 0 0 0 0 0 0 0 0 0 0 0 0 0 0 0 0 0 0 0 0 0 0 0 0 0 0 0 0 0 0 0 0
0 0 0 0 0 0 0 0 0 0 0 0 0 0 0 0 0 0 0 0 0 0 0 0 0 0 0 0 0 0 0 0 0 0 0 0 0 0 0 0 0 0 0 0
0 0 0 0 0 0 0 0 0 0 0 0 0 0 0 0 0 0 0 0 0 0 0 0 0 0 0 0 0 0 0 0 0 0 0 0 0 0 0 0 0 0 0 0
0 0 0 0 0 0 0 0 0 0 0 0 0 0 0 0 0 0 0 0 0 0 0 0 0 0 0 0 0 0 0 0 0 0 0 0 0 0 0 0 0 0 0 0
0 0 0 0 0 0 0 0 0 0 0 0 0 0 0 0 0 0 0 0 0 0 0 0 0 0 0 0 0 0 0 0 0 0 0 0 0 0 0 0 0 0 0 0
0 0 0 0 0 0 0 0 0 0 0 0 0 0 0 0 0 0 0 0 0 0 0 0 0 0 0 0 0 0 0 0 0 0 0 0 0 0 0 0 0 0 0 0
0 0 0 0 0 0 0 0 0 0 0 0 0 0 0 0 0 0 0 0 0 0 0 0 0 0 0 0 0 0 0 0 0 0 0 0 0 0 0 0 0 0 0 0
0 0 0 0 0 0 0 0 0 0 0 0 0 0 0 0 0 0 0 0 0 0 0 0 0 0 0 0 0 0 0 0 0 0 0 0 0 0 0 0 0 0 0 0
0 0 0 0 0 0 0 0 0 0 0 0 0 0 0 0 0 0 0 0 0 0 0 0 0 0 0 0 0 0 0 0 0 0 0 0 0 0 0 0 0 0 0 0
0 0 0 0 0 0 0 0 0 0 0 0 0 0 0 0 0 0 0 0 0 0 0 0 0 0 0 0 0 0 0 0 0 0 0 0 0 0 0 0 0 0 0 0
0 0 0 0 0 0 0 0 0 0 0 0 0 0 0 0 0 0 0 0 0 0 0 0 0 0 0 0 0 0 0 0 0 0 0 0 0 0 0 0 0 0 0 0
0 0 0 0 0 0 0 0 0 0 0 0 0 0 0 0 0 0 0 0 0 0 0 0 0 0 0 0 0 0 0 0 0 0 0 0 0 0 0 0 0 0 0 0
0 0 0 0 0 0 0 0 0 0 0 0 0 0 0 0 0 0 0 0 0 0 0 0 0 0 0 0 0 0 0 0 0 0 0 0 0 0 0 0 0 0 0 0
0 0 0 0 0 0 0 0 0 0 0 0 0 0 0 0 0 0 0 0 0 0 0 0 0 0 0 0 0 0 0 0 0 0 0 0 0 0 0 0 0 0 0 0
0 0 0 0 0 0 0 0 0 0 0 0 0 0 0 0 0 0 0 0 0 0 0 0 0 0 0 0 0 0 0 0 0 0 0 0 0 0 0 0 0 0 0 0
Wind_Speed
5 5 4 5 6 8 8 8 7 7 7 8 6 6 7 8 8 9 9 10 11 11 10 10 10 9 9 8 8 8 8 8 7 6 6 5 5 5 5 5 5 5 4 4
2 4 5 5 7 8 8 7 7 6 8 7 5 3 5 7 10 10 11 12 12 12 11 11 12 11 10 9 9 9 9 8 7 6 6 6 6 5 5 5 4 4 4 4
3 3 0 4 7 8 7 6 7 8 8 4 3 5 8 9 10 12 13 12 12 13 13 13 12 12 12 11 9 9 9 8 8 8 7 6 6 6 6 5 4 4 4 4
1 2 2 7 4 5 6 5 5 5 5 6 6 6 6 7 10 10 11 11 12 11 11 10 10 9 9 9 10 10 8 8 8 8 8 6 6 6 5 4 4 4 3 4
3 1 5 6 3 3 4 3 3 4 4 3 2 2 2 3 7 10 12 11 11 11 11 10 11 11 11 10 9 9 10 10 9 9 9 8 7 6 4 4 4 3 4 4
3 3 4 6 5 2 4 2 4 3 4 3 4 3 4 4 5 6 6 7 7 7 8 9 10 11 12 11 10 11 11 10 9 9 10 9 8 6 4 4 4 4 3 4
4 3 6 7 4 3 4 5 3 2 3 4 5 6 5 3 3 4 5 6 7 8 9 10 10 12 12 11 13 11 9 9 8 9 9 8 7 5 5 5 5 4 3 2
4 3 7 5 2 4 6 4 2 2 3 4 3 3 2 3 3 3 4 5 6 7 7 7 10 12 11 12 11 9 9 9 9 8 8 7 7 6 5 6 5 4 3 2
7 7 6 3 4 4 4 4 2 3 2 4 3 2 2 3 2 2 4 4 5 6 6 5 8 11 12 10 9 10 10 10 9 8 7 7 8 7 5 5 5 4 4 4
1 3 2 1 1 2 3 4 3 3 3 4 3 3 2 2 2 2 2 3 4 5 6 5 6 8 8 8 10 11 11 10 9 9 7 6 6 6 6 6 6 5 5 5
1 2 2 3 1 1 2 4 4 3 3 3 4 3 2 2 2 2 2 2 4 5 6 6 6 6 6 8 10 10 9 8 8 8 8 7 6 6 8 8 9 8 7 6
4 5 4 3 2 2 4 4 3 4 4 3 3 3 2 2 1 2 2 2 3 3 4 4 5 5 6 8 10 10 8 8 7 6 6 6 6 4 6 6 9 11 9 8
4 3 4 2 1 2 3 3 3 4 4 3 3 3 3 2 1 2 2 2 3 3 3 3 4 5 6 7 9 10 9 9 7 7 7 7 6 6 5 3 5 8 10 11
2 4 3 1 1 1 3 3 4 4 3 2 2 3 3 2 2 2 1 2 2 2 2 3 4 4 5 7 8 8 8 8 8 7 7 7 7 7 6 6 5 4 6 10
1 3 4 2 2 3 3 4 5 4 3 3 2 3 2 2 1 1 1 1 2 2 2 2 3 3 4 6 7 7 7 5 6 5 5 6 6 5 5 6 5 4 3 4
3 4 4 4 3 2 3 4 3 2 1 2 2 2 1 2 1 1 1 2 3 2 2 2 3 3 3 5 6 5 5 7 7 5 5 5 5 5 5 6 6 5 5 5
5 3 3 3 2 1 1 2 2 1 1 1 1 1 2 3 3 3 2 1 1 1 1 2 2 2 3 4 5 4 4 5 7 6 5 6 6 6 6 6 6 6 6 7
5 5 5 5 4 2 1 1 1 1 1 0 1 2 2 2 2 1 2 2 3 3 2 1 0 0 1 3 3 3 3 4 5 5 5 5 5 6 5 6 6 6 5 5
4 4 3 3 4 3 3 2 1 1 1 2 3 2 2 1 1 1 2 2 2 1 3 2 2 1 0 2 3 2 3 4 4 4 5 6 5 4 5 5 5 5 5 4
4 3 4 3 3 3 3 2 2 3 2 3 3 3 3 2 2 2 2 2 1 1 2 2 1 1 0 1 2 2 3 4 4 4 4 4 5 5 5 5 5 5 5 5
5 5 5 4 4 3 3 3 3 3 3 3 3 3 2 2 2 2 2 2 3 2 1 2 1 1 1 2 1 1 2 3 4 4 4 4 4 5 5 5 5 5 5 5
4 4 4 4 4 3 2 3 3 4 4 4 4 3 3 3 3 3 1 1 3 3 2 1 2 3 3 3 1 1 2 3 3 3 4 4 4 5 5 5 5 5 5 5
4 4 4 4 4 3 3 3 3 3 3 3 3 2 2 1 1 1 2 3 2 3 2 2 4 5 5 2 1 2 2 3 3 4 4 4 5 5 5 5 5 5 5 5
4 4 4 3 4 5 4 2 2 3 3 2 1 1 1 1 2 1 1 3 4 4 2 3 6 6 5 2 1 2 2 3 3 3 3 3 4 4 4 4 5 5 5 5
4 4 4 4 4 2 1 2 3 3 3 2 2 2 1 0 1 2 2 2 3 4 3 4 7 6 3 2 2 2 2 3 3 3 3 4 4 4 4 4 4 4 4 5
3 3 2 2 2 1 1 1 1 1 1 1 2 2 2 2 1 2 2 2 3 4 3 3 3 4 3 3 3 3 3 3 3 3 4 4 4 4 4 4 5 4 4 4
2 2 2 2 1 1 1 1 1 0 0 0 1 2 2 2 2 2 2 2 2 2 3 3 3 3 3 3 3 3 3 3 3 3 3 3 3 4 4 5 4 4 3 4
Wind_Direction
218 222 202 220 222 208 198 200 202 232 237 247 233 207 197 185 173 169 174 179 180 183 185 181 177 177 175 174 171 165 162 165 173 168 157 150 147 144 137 133 134 129 118 109
265 238 230 246 238 225 221 217 220 240 257 244 218 192 183 178 174 178 184 188 187 186 185 185 184 180 177 176 174 166 169 173 167 157 153 154 152 143 134 128 128 125 125 126
271 291 105 263 233 215 218 215 197 219 235 237 203 194 195 189 185 189 190 190 190 190 190 190 188 182 181 178 169 169 172 170 166 163 160 161 155 144 142 142 136 130 132 127
205 15 241 249 243 211 212 234 213 218 228 206 204 204 203 191 187 196 194 190 191 191 191 189 181 176 171 165 168 171 171 171 170 165 162 158 154 155 154 146 146 146 148 147
137 206 283 297 290 202 174 270 241 203 222 211 170 87 331 233 201 199 193 190 191 189 184 179 176 172 164 167 169 170 175 176 174 167 163 162 165 167 160 149 150 153 155 153
138 164 238 259 268 246 109 322 289 190 188 188 124 131 249 242 208 204 190 184 181 173 163 172 176 166 165 172 175 183 183 179 173 169 168 171 173 167 158 153 158 154 155 163
163 198 255 255 269 84 121 229 263 188 172 160 165 196 220 203 189 188 174 172 167 161 170 180 170 164 171 176 189 189 174 165 166 169 171 170 163 158 153 151 148 154 160 174
160 183 251 256 138 163 203 216 203 144 134 134 164 187 166 147 154 154 153 152 159 163 174 172 166 168 176 189 188 165 158 162 167 168 171 164 156 158 157 154 156 165 167 189
181 207 233 208 186 205 160 148 160 132 129 126 124 135 142 141 145 142 148 150 156 162 163 165 172 175 184 189 164 157 161 168 170 169 170 162 164 166 162 165 170 182 183 198
155 275 273 300 92 102 128 133 138 132 124 106 112 116 120 127 132 130 135 146 149 149 158 174 180 183 188 169 159 161 168 172 170 171 172 171 173 175 176 181 185 191 197 205
160 269 358 1 7 126 104 100 93 85 87 101 110 107 124 134 154 161 154 152 149 161 174 186 181 181 170 160 159 162 168 171 173 177 178 181 186 191 192 200 195 192 202 199
206 222 178 224 256 119 102 101 107 94 67 62 96 114 108 122 149 151 151 145 146 159 172 181 172 172 168 164 164 164 168 175 179 178 179 181 184 201 223 213 212 211 207 200
188 192 171 184 111 98 114 121 110 102 102 84 68 96 106 109 119 125 130 145 171 180 177 172 169 173 174 169 169 173 178 181 181 181 182 184 185 190 206 239 233 221 216 210
136 110 96 108 143 112 108 111 98 79 72 82 80 79 90 90 87 111 165 195 183 160 160 163 166 187 184 170 172 179 181 184 183 187 188 189 194 197 196 197 208 232 232 224
105 123 151 140 96 79 83 86 78 60 48 39 48 66 83 100 124 171 182 125 111 118 150 159 171 204 185 171 175 181 182 183 185 186 188 192 192 193 197 204 209 216 221 232
126 96 104 101 97 85 78 85 91 73 59 51 40 37 63 89 81 71 76 109 118 150 190 178 191 204 174 171 177 183 190 188 179 181 185 189 191 194 200 206 211 214 219 221
131 131 128 121 115 101 105 131 139 140 108 87 50 58 71 69 54 38 28 43 120 148 172 177 208 202 171 174 180 187 188 191 186 184 192 196 197 202 205 207 214 220 226 220
158 163 162 158 155 145 124 109 118 117 129 130 75 74 81 90 84 31 15 48 59 36 7 333 311 131 173 184 187 192 189 191 193 197 197 199 201 204 204 209 216 222 231 222
120 133 138 139 142 137 129 119 111 96 85 90 89 79 67 77 90 68 59 73 76 16 319 327 21 49 214 221 192 189 193 196 199 203 203 204 204 205 206 210 217 222 220 217
105 110 111 106 98 103 102 95 89 75 63 76 81 73 56 37 49 68 72 63 294 262 284 333 7 14 293 251 207 197 199 202 206 209 208 207 208 212 213 215 217 221 221 221
111 106 103 100 87 77 84 94 92 76 54 68 85 86 68 32 35 60 73 12 316 318 338 1 2 324 307 308 277 228 212 211 212 213 212 214 217 219 220 221 222 225 227 229
110 105 99 97 95 79 62 75 85 79 68 66 69 74 67 45 36 36 22 274 293 322 341 336 320 309 314 320 286 248 232 224 220 217 216 218 218 222 226 227 228 230 229 228
105 102 98 97 99 92 66 63 71 78 75 72 73 71 69 41 44 68 337 313 316 330 333 307 308 319 325 323 296 266 249 237 230 226 225 225 224 225 228 229 230 230 230 229
97 92 91 90 88 83 69 45 51 65 68 59 62 79 82 49 358 331 273 303 331 340 332 319 326 334 340 328 306 286 269 252 241 235 231 229 230 231 231 229 231 232 231 231
104 98 96 92 86 86 86 72 63 57 54 41 25 15 10 64 257 298 314 321 334 347 342 343 353 350 342 319 305 293 283 268 256 242 232 231 232 233 234 233 232 233 233 233
112 114 116 117 126 128 113 95 84 71 63 29 359 353 351 347 340 326 326 333 341 341 337 331 334 338 331 317 305 294 286 284 279 262 246 241 238 237 238 238 239 237 237 238
95 97 95 81 71 99 111 114 119 130 154 167 308 316 325 334 337 330 327 328 328 325 321 321 321 322 320 315 308 302 295 287 280 270 260 253 249 246 245 243 242 244 246 246